W2GM Weather Reports


time (UTC)temp
F
wind
direction
speed
knots
gust
knots
rain 1hr
in
rain 24hr
in
rain mn
in
humidity
%
barometer
mb
20260505223252 79 169 0.9 4.3 0.00 0.00 0.00 37 1007.4
20260505223152 79 161 0.9 3.5 0.00 0.00 0.00 37 1007.4
20260505223108 79 161 0.9 4.3 0.00 0.00 0.00 37 1007.4
20260505222853 79 190 0.9 4.3 0.00 0.00 0.00 36 1007.4
20260505222752 79 197 0.9 4.3 0.00 0.00 0.00 37 1007.4
20260505222652 79 197 0.9 4.3 0.00 0.00 0.00 37 1007.4
20260505222552 79 137 0.9 4.3 0.00 0.00 0.00 36 1007.4
20260505222450 79 172 1.7 4.3 0.00 0.00 0.00 36 1007.4
20260505222348 79 133 1.7 4.3 0.00 0.00 0.00 36 1007.4
20260505222249 79 211 1.7 4.3 0.00 0.00 0.00 36 1007.4
20260505222150 79 107 1.7 4.3 0.00 0.00 0.00 36 1007.4
20260505222048 79 221 1.7 4.3 0.00 0.00 0.00 36 1007.4
20260505221949 79 208 1.7 4.3 0.00 0.00 0.00 35 1007.4
20260505221847 79 208 1.7 7.8 0.00 0.00 0.00 35 1007.4
20260505221749 79 164 2.6 7.8 0.00 0.00 0.00 36 1007.4
20260505221705 79 210 1.7 7.8 0.00 0.00 0.00 36 1007.4
20260505221448 79 205 2.6 7.8 0.00 0.00 0.00 35 1007.4
20260505221404 79 232 1.7 8.7 0.00 0.00 0.00 35 1007.4
20260505221145 79 123 1.7 8.7 0.00 0.00 0.00 35 1007.5
20260505221047 79 146 1.7 8.7 0.00 0.00 0.00 35 1007.4
20260505220946 80 217 1.7 8.7 0.00 0.00 0.00 36 1007.4
20260505220847 80 139 1.7 8.7 0.00 0.00 0.00 35 1007.3
20260505220746 80 138 1.7 8.7 0.00 0.00 0.00 35 1007.4
20260505220645 80 100 1.7 8.7 0.00 0.00 0.00 35 1007.4
20260505220544 80 225 1.7 8.7 0.00 0.00 0.00 34 1007.4
20260505220445 80 225 1.7 8.7 0.00 0.00 0.00 35 1007.3
20260505220430 80 219 1.7 6.1 0.00 0.00 0.00 35 1007.5
20260505215959 80 219 1.7 7.0 0.00 0.00 0.00 34 1007.4
20260505215742 80 202 1.7 7.0 0.00 0.00 0.00 35 1007.3
20260505215638 80 157 1.7 7.0 0.00 0.00 0.00 35 1007.3
20260505215538 80 156 1.7 7.0 0.00 0.00 0.00 35 1007.4
20260505215439 80 108 1.7 7.0 0.00 0.00 0.00 35 1007.3
20260505215337 80 121 1.7 7.0 0.00 0.00 0.00 35 1007.3
20260505215239 80 182 1.7 8.7 0.00 0.00 0.00 35 1007.3
20260505215155 80 172 1.7 8.7 0.00 0.00 0.00 36 1007.3
20260505214938 80 239 2.6 8.7 0.00 0.00 0.00 35 1007.3
20260505214839 80 186 2.6 9.6 0.00 0.00 0.00 35 1007.3
20260505214738 80 189 2.6 9.6 0.00 0.00 0.00 35 1007.3
20260505214637 80 239 2.6 9.6 0.00 0.00 0.00 35 1007.3
20260505214540 80 302 2.6 9.6 0.00 0.00 0.00 35 1007.3
20260505214439 80 234 2.6 9.6 0.00 0.00 0.00 35 1007.3
20260505214339 80 233 2.6 9.6 0.00 0.00 0.00 35 1007.2
20260505214238 80 236 2.6 9.6 0.00 0.00 0.00 35 1007.3
20260505214139 80 247 2.6 9.6 0.00 0.00 0.00 35 1007.4
20260505214038 80 248 2.6 9.6 0.00 0.00 0.00 35 1007.2
20260505213938 80 227 2.6 9.6 0.00 0.00 0.00 35 1007.4
20260505213838 80 224 1.7 7.8 0.00 0.00 0.00 34 1007.0
20260505213738 80 223 1.7 7.0 0.00 0.00 0.00 36 1007.0
20260505213639 80 245 1.7 6.1 0.00 0.00 0.00 36 1007.2
20260505213538 80 250 1.7 6.1 0.00 0.00 0.00 35 1007.0
20260505213439 80 240 0.9 6.1 0.00 0.00 0.00 36 1007.0
20260505213338 80 244 0.9 6.1 0.00 0.00 0.00 36 1007.0
20260505213239 80 188 0.9 6.1 0.00 0.00 0.00 36 1007.0
20260505213153 80 191 0.9 2.6 0.00 0.00 0.00 35 1007.2
20260505212939 80 148 0.9 2.6 0.00 0.00 0.00 35 1007.0
20260505212838 80 195 0.9 2.6 0.00 0.00 0.00 36 1007.0
20260505212737 80 181 0.9 2.6 0.00 0.00 0.00 37 1007.0
20260505212638 80 182 0.9 2.6 0.00 0.00 0.00 36 1007.0
20260505212538 80 183 0.9 6.1 0.00 0.00 0.00 37 1007.0
20260505212454 80 183 0.9 6.1 0.00 0.00 0.00 36 1006.9
20260505212238 80 205 1.7 6.1 0.00 0.00 0.00 36 1006.9
20260505212138 80 185 1.7 9.6 0.00 0.00 0.00 36 1006.9
20260505212039 80 185 1.7 9.6 0.00 0.00 0.00 35 1006.8
20260505211938 80 185 1.7 9.6 0.00 0.00 0.00 34 1006.8
20260505211837 80 217 2.6 9.6 0.00 0.00 0.00 34 1006.8
20260505211738 80 238 2.6 9.6 0.00 0.00 0.00 34 1006.9
20260505211638 80 238 2.6 9.6 0.00 0.00 0.00 33 1006.8
20260505211555 80 243 1.7 9.6 0.00 0.00 0.00 33 1006.8
20260505211339 81 219 1.7 9.6 0.00 0.00 0.00 33 1006.7
20260505211237 81 210 1.7 9.6 0.00 0.00 0.00 32 1006.6
20260505211139 81 221 1.7 8.7 0.00 0.00 0.00 34 1006.7
20260505211039 81 246 1.7 5.2 0.00 0.00 0.00 34 1006.9
20260505210938 81 147 1.7 5.2 0.00 0.00 0.00 35 1006.9
20260505210838 81 222 1.7 5.2 0.00 0.00 0.00 36 1006.9
20260505210756 81 222 1.7 7.8 0.00 0.00 0.00 35 1006.8
20260505210539 82 202 1.7 7.8 0.00 0.00 0.00 35 1006.8
20260505210438 82 202 2.6 7.8 0.00 0.00 0.00 35 1006.8
20260505210340 82 202 2.6 7.8 0.00 0.00 0.00 36 1006.7
20260505210240 82 192 2.6 7.8 0.00 0.00 0.00 35 1006.8
20260505210139 82 221 2.6 7.8 0.00 0.00 0.00 36 1006.7
20260505210039 82 219 2.6 7.8 0.00 0.00 0.00 35 1006.8
20260505205938 82 218 2.6 7.8 0.00 0.00 0.00 35 1006.8
20260505205838 82 203 2.6 12.2 0.00 0.00 0.00 35 1006.8
20260505205737 82 229 2.6 12.2 0.00 0.00 0.00 35 1006.7
20260505205654 82 232 2.6 12.2 0.00 0.00 0.00 36 1006.8
20260505205439 82 228 2.6 12.2 0.00 0.00 0.00 36 1006.7
20260505205339 82 247 2.6 12.2 0.00 0.00 0.00 35 1006.7
20260505205239 82 200 2.6 12.2 0.00 0.00 0.00 35 1006.6
20260505205137 82 134 2.6 12.2 0.00 0.00 0.00 34 1006.7
20260505205038 82 153 2.6 12.2 0.00 0.00 0.00 36 1006.8
20260505204939 82 221 2.6 12.2 0.00 0.00 0.00 36 1006.7
20260505204840 82 118 2.6 11.3 0.00 0.00 0.00 35 1006.7
20260505204754 82 187 2.6 11.3 0.00 0.00 0.00 35 1006.8
20260505204538 82 199 2.6 11.3 0.00 0.00 0.00 35 1006.9
20260505204510 82 163 2.6 11.3 0.00 0.00 0.00 35 1006.9
20260505204139 82 238 2.6 11.3 0.00 0.00 0.00 36 1006.8
20260505204040 82 234 2.6 11.3 0.00 0.00 0.00 36 1006.8
20260505203937 82 233 2.6 11.3 0.00 0.00 0.00 35 1006.9
20260505203839 82 200 2.6 11.3 0.00 0.00 0.00 36 1006.8
20260505203742 82 132 2.6 11.3 0.00 0.00 0.00 34 1006.8
20260505203727 82 246 2.6 11.3 0.00 0.00 0.00 35 1006.9
20260505203239 82 236 2.6 9.6 0.00 0.00 0.00 35 1006.9
20260505203138 82 236 2.6 9.6 0.00 0.00 0.00 35 1006.8
20260505203038 82 147 2.6 9.6 0.00 0.00 0.00 35 1006.7
20260505202939 82 196 1.7 9.6 0.00 0.00 0.00 35 1006.8
20260505202839 82 197 1.7 9.6 0.00 0.00 0.00 35 1006.8
20260505202737 82 150 1.7 9.6 0.00 0.00 0.00 34 1006.9
20260505202639 82 117 1.7 9.6 0.00 0.00 0.00 34 1006.8
20260505202539 82 124 1.7 9.6 0.00 0.00 0.00 34 1006.9
20260505202440 82 123 1.7 9.6 0.00 0.00 0.00 35 1006.8
20260505202337 82 213 1.7 9.6 0.00 0.00 0.00 35 1007.0
20260505202239 82 241 1.7 9.6 0.00 0.00 0.00 36 1006.9
20260505202137 82 138 1.7 9.6 0.00 0.00 0.00 35 1006.8
20260505202038 82 205 1.7 6.1 0.00 0.00 0.00 35 1007.0
20260505201938 82 125 1.7 6.1 0.00 0.00 0.00 36 1006.9
20260505201838 82 193 1.7 8.7 0.00 0.00 0.00 37 1006.9
20260505201737 82 187 1.7 8.7 0.00 0.00 0.00 37 1006.8
20260505201638 82 121 1.7 8.7 0.00 0.00 0.00 36 1006.9
20260505201539 82 221 2.6 12.2 0.00 0.00 0.00 37 1006.9
20260505201437 82 147 2.6 12.2 0.00 0.00 0.00 39 1007.0
20260505201339 82 182 2.6 12.2 0.00 0.00 0.00 37 1007.0
20260505201239 82 181 2.6 12.2 0.00 0.00 0.00 37 1007.0
20260505201155 82 202 2.6 12.2 0.00 0.00 0.00 37 1006.9
20260505200938 82 126 2.6 12.2 0.00 0.00 0.00 37 1006.9
20260505200839 82 137 2.6 12.2 0.00 0.00 0.00 37 1007.0
20260505200737 82 121 2.6 12.2 0.00 0.00 0.00 38 1007.0
20260505200639 82 148 2.6 12.2 0.00 0.00 0.00 37 1007.0
20260505200538 82 128 2.6 7.8 0.00 0.00 0.00 38 1007.0
20260505200439 82 169 2.6 7.8 0.00 0.00 0.00 38 1007.0
20260505200338 82 242 1.7 7.8 0.00 0.00 0.00 36 1007.0
20260505200237 82 234 1.7 7.8 0.00 0.00 0.00 37 1007.2
20260505200155 82 202 1.7 6.1 0.00 0.00 0.00 37 1007.2
20260505195956 82 272 2.6 6.1 0.00 0.00 0.00 37 1007.2
20260505195737 82 225 2.6 13.0 0.00 0.00 0.00 38 1007.0
20260505195640 82 229 1.7 13.0 0.00 0.00 0.00 39 1007.2
20260505195538 82 191 2.6 13.0 0.00 0.00 0.00 38 1007.2
20260505195439 82 220 2.6 13.0 0.00 0.00 0.00 38 1007.2
20260505195338 82 233 2.6 13.0 0.00 0.00 0.00 37 1007.2
20260505195240 82 215 2.6 13.0 0.00 0.00 0.00 37 1007.3
20260505195139 82 198 2.6 13.0 0.00 0.00 0.00 37 1007.2
20260505195040 82 229 2.6 13.0 0.00 0.00 0.00 36 1007.2
20260505194953 82 119 1.7 13.0 0.00 0.00 0.00 37 1007.2
20260505194739 83 228 1.7 9.6 0.00 0.00 0.00 38 1007.2
20260505194638 83 225 1.7 9.6 0.00 0.00 0.00 37 1007.2
20260505194537 83 232 1.7 9.6 0.00 0.00 0.00 37 1007.0
20260505194438 83 173 1.7 8.7 0.00 0.00 0.00 37 1007.2
20260505194338 83 115 1.7 8.7 0.00 0.00 0.00 37 1007.2
20260505194237 83 205 1.7 7.8 0.00 0.00 0.00 38 1007.3
20260505194137 82 140 1.7 7.8 0.00 0.00 0.00 39 1007.3
20260505194038 82 105 1.7 7.8 0.00 0.00 0.00 38 1007.3
20260505193938 82 238 1.7 7.8 0.00 0.00 0.00 39 1007.3
20260505193839 82 199 1.7 7.8 0.00 0.00 0.00 39 1007.3
20260505193754 82 165 1.7 7.8 0.00 0.00 0.00 40 1007.2
20260505193538 82 177 1.7 7.8 0.00 0.00 0.00 38 1007.2
20260505193437 82 211 1.7 7.8 0.00 0.00 0.00 37 1007.2
20260505193340 82 214 1.7 7.8 0.00 0.00 0.00 37 1007.2
20260505193239 82 225 1.7 6.1 0.00 0.00 0.00 37 1007.3
20260505193138 82 216 1.7 8.7 0.00 0.00 0.00 37 1007.4
20260505193035 82 194 1.7 8.7 0.00 0.00 0.00 37 1007.4
20260505192933 82 229 2.6 8.7 0.00 0.00 0.00 37 1007.2
20260505192835 82 213 2.6 8.7 0.00 0.00 0.00 39 1007.4
20260505192733 82 137 2.6 8.7 0.00 0.00 0.00 39 1007.3
20260505192635 82 254 2.6 8.7 0.00 0.00 0.00 38 1007.5
20260505192536 82 178 2.6 8.7 0.00 0.00 0.00 37 1007.4
20260505192434 82 238 2.6 8.7 0.00 0.00 0.00 37 1007.4
20260505192335 82 157 2.6 8.7 0.00 0.00 0.00 37 1007.3
20260505192251 82 221 2.6 8.7 0.00 0.00 0.00 37 1007.4
20260505192036 82 247 2.6 8.7 0.00 0.00 0.00 37 1007.5
20260505191952 82 200 2.6 9.6 0.00 0.00 0.00 38 1007.3
20260505191735 82 240 2.6 9.6 0.00 0.00 0.00 37 1007.5
20260505191633 82 278 2.6 9.6 0.00 0.00 0.00 38 1007.5
20260505191535 82 234 2.6 9.6 0.00 0.00 0.00 39 1007.5
20260505191451 82 149 2.6 9.6 0.00 0.00 0.00 39 1007.5
20260505191234 82 205 3.5 10.4 0.00 0.00 0.00 37 1007.6
20260505191133 82 159 3.5 10.4 0.00 0.00 0.00 38 1007.5
20260505191034 82 218 3.5 10.4 0.00 0.00 0.00 36 1007.5
20260505190933 82 240 3.5 10.4 0.00 0.00 0.00 36 1007.6
20260505190833 82 233 3.5 10.4 0.00 0.00 0.00 35 1007.7
20260505190731 82 219 2.6 10.4 0.00 0.00 0.00 36 1007.8
20260505190629 82 213 2.6 10.4 0.00 0.00 0.00 35 1007.8
20260505190531 82 212 2.6 10.4 0.00 0.00 0.00 36 1007.8
20260505190431 82 222 3.5 10.4 0.00 0.00 0.00 35 1007.8
20260505190329 83 232 2.6 9.6 0.00 0.00 0.00 36 1007.7
20260505190232 83 225 2.6 7.8 0.00 0.00 0.00 38 1007.7
20260505190129 83 213 2.6 7.8 0.00 0.00 0.00 39 1007.7
20260505190030 82 130 2.6 7.8 0.00 0.00 0.00 38 1007.7
20260505185931 82 143 2.6 7.8 0.00 0.00 0.00 37 1007.7
20260505185844 83 196 2.6 7.8 0.00 0.00 0.00 38 1007.7
20260505185630 82 138 2.6 9.6 0.00 0.00 0.00 37 1007.7
20260505185548 82 176 2.6 9.6 0.00 0.00 0.00 37 1007.8
20260505185330 82 166 2.6 9.6 0.00 0.00 0.00 37 1007.7
20260505185230 83 213 1.7 9.6 0.00 0.00 0.00 38 1007.8
20260505185131 83 227 1.7 9.6 0.00 0.00 0.00 37 1007.8
20260505185033 83 216 1.7 9.6 0.00 0.00 0.00 38 1007.7
20260505185017 83 227 1.7 9.6 0.00 0.00 0.00 38 1007.9
20260505184522 83 214 1.7 13.0 0.00 0.00 0.00 39 1007.8
20260505184423 83 134 1.7 13.0 0.00 0.00 0.00 40 1007.8
20260505184322 83 201 1.7 13.0 0.00 0.00 0.00 40 1007.8
20260505184222 83 209 1.7 13.0 0.00 0.00 0.00 39 1007.9
20260505184122 83 209 1.7 13.0 0.00 0.00 0.00 40 1007.9
20260505184031 83 227 1.7 13.0 0.00 0.00 0.00 40 1007.7
20260505184014 82 217 1.7 13.0 0.00 0.00 0.00 39 1007.9
20260505183519 82 232 2.6 6.1 0.00 0.00 0.00 39 1008.0
20260505183420 82 232 2.6 7.0 0.00 0.00 0.00 39 1008.1
20260505183320 82 227 2.6 7.0 0.00 0.00 0.00 40 1008.0
20260505183238 82 186 2.6 7.0 0.00 0.00 0.00 40 1008.2
20260505183020 82 232 2.6 7.0 0.00 0.00 0.00 40 1008.1
20260505182917 82 140 1.7 7.0 0.00 0.00 0.00 40 1008.1
20260505182816 82 119 1.7 7.0 0.00 0.00 0.00 39 1008.1
20260505182717 82 224 1.7 7.0 0.00 0.00 0.00 40 1008.1
20260505182617 82 236 1.7 7.0 0.00 0.00 0.00 40 1008.1
20260505182518 82 248 1.7 7.0 0.00 0.00 0.00 39 1008.2
20260505182417 82 133 2.6 10.4 0.00 0.00 0.00 41 1008.2
20260505182315 82 199 1.7 10.4 0.00 0.00 0.00 41 1008.2
20260505182218 82 130 1.7 10.4 0.00 0.00 0.00 42 1008.1
20260505182116 82 112 2.6 10.4 0.00 0.00 0.00 41 1008.1
20260505182015 82 131 2.6 10.4 0.00 0.00 0.00 40 1008.1
20260505181917 82 140 2.6 10.4 0.00 0.00 0.00 40 1008.2
20260505181818 82 109 2.6 10.4 0.00 0.00 0.00 39 1008.2
20260505181734 82 225 2.6 10.4 0.00 0.00 0.00 39 1008.2
20260505181517 82 212 2.6 10.4 0.00 0.00 0.00 42 1008.2
20260505181413 82 111 2.6 10.4 0.00 0.00 0.00 41 1008.1
20260505181311 82 210 2.6 10.4 0.00 0.00 0.00 41 1008.1
20260505181223 82 205 2.6 10.4 0.00 0.00 0.00 41 1008.1
20260505181007 82 169 2.6 10.4 0.00 0.00 0.00 41 1008.1
20260505180908 82 98 2.6 10.4 0.00 0.00 0.00 41 1008.2
20260505180807 82 107 1.7 7.8 0.00 0.00 0.00 43 1008.2
20260505180709 82 117 2.6 7.8 0.00 0.00 0.00 42 1008.3
20260505180607 82 246 2.6 7.8 0.00 0.00 0.00 41 1008.2
20260505180507 82 214 2.6 14.8 0.00 0.00 0.00 40 1008.3
20260505180426 82 240 2.6 14.8 0.00 0.00 0.00 40 1008.1
20260505180207 83 240 2.6 14.8 0.00 0.00 0.00 39 1008.4
20260505180107 83 218 2.6 14.8 0.00 0.00 0.00 40 1008.3
20260505180007 83 167 1.7 14.8 0.00 0.00 0.00 40 1008.3
20260505175904 83 240 1.7 14.8 0.00 0.00 0.00 40 1008.2
20260505175805 83 190 1.7 14.8 0.00 0.00 0.00 40 1008.2
20260505175705 83 209 1.7 14.8 0.00 0.00 0.00 39 1008.4
20260505175604 83 219 1.7 14.8 0.00 0.00 0.00 39 1008.1
20260505175504 83 153 0.9 7.8 0.00 0.00 0.00 39 1008.1
20260505175406 83 190 1.7 7.8 0.00 0.00 0.00 42 1008.1
20260505175305 83 105 1.7 7.8 0.00 0.00 0.00 45 1008.3
20260505175204 82 109 0.9 7.8 0.00 0.00 0.00 45 1008.3
20260505175103 82 121 1.7 7.8 0.00 0.00 0.00 45 1008.3
20260505175002 82 121 1.7 7.8 0.00 0.00 0.00 45 1008.3
20260505174901 82 121 1.7 8.7 0.00 0.00 0.00 44 1008.3
20260505174802 82 116 2.6 8.7 0.00 0.00 0.00 47 1008.2
20260505174720 82 111 2.6 8.7 0.00 0.00 0.00 46 1008.3
20260505174504 82 182 2.6 8.7 0.00 0.00 0.00 45 1008.4
20260505174402 81 194 2.6 8.7 0.00 0.00 0.00 44 1008.4
20260505174302 81 157 2.6 8.7 0.00 0.00 0.00 43 1008.4
20260505174202 81 161 2.6 8.7 0.00 0.00 0.00 44 1008.5
20260505174101 81 148 2.6 8.7 0.00 0.00 0.00 43 1008.4
20260505174001 81 136 1.7 8.7 0.00 0.00 0.00 43 1008.6
20260505173902 81 130 1.7 6.1 0.00 0.00 0.00 43 1008.5
20260505173800 81 215 1.7 6.1 0.00 0.00 0.00 45 1008.6
20260505173700 81 233 1.7 6.1 0.00 0.00 0.00 43 1008.5
20260505173600 81 234 1.7 6.1 0.00 0.00 0.00 42 1008.6
20260505173459 81 225 1.7 5.2 0.00 0.00 0.00 43 1008.5
20260505173400 81 219 1.7 5.2 0.00 0.00 0.00 45 1008.6
20260505173259 81 190 1.7 5.2 0.00 0.00 0.00 45 1008.5
20260505173159 81 190 1.7 5.2 0.00 0.00 0.00 47 1008.4
20260505173058 81 222 1.7 5.2 0.00 0.00 0.00 46 1008.5
20260505172955 81 232 1.7 7.0 0.00 0.00 0.00 45 1008.6
20260505172854 81 236 1.7 7.0 0.00 0.00 0.00 45 1008.6
20260505172755 81 236 1.7 7.8 0.00 0.00 0.00 44 1008.6
20260505172653 81 236 1.7 7.8 0.00 0.00 0.00 46 1008.7
20260505172553 81 184 1.7 7.8 0.00 0.00 0.00 44 1008.7
20260505172455 81 178 1.7 7.8 0.00 0.00 0.00 45 1008.7
20260505172352 81 134 1.7 7.8 0.00 0.00 0.00 44 1008.8
20260505172253 81 109 1.7 7.8 0.00 0.00 0.00 45 1008.7
20260505172153 81 194 1.7 7.8 0.00 0.00 0.00 44 1008.7
20260505172123 81 134 1.7 7.8 0.00 0.00 0.00 44 1008.7
20260505171748 80 250 1.7 9.6 0.00 0.00 0.00 48 1008.8
20260505171649 80 149 1.7 9.6 0.00 0.00 0.00 48 1008.8
20260505171545 80 89 1.7 9.6 0.00 0.00 0.00 48 1008.7
20260505171445 80 219 1.7 9.6 0.00 0.00 0.00 47 1008.8
20260505171400 80 219 1.7 9.6 0.00 0.00 0.00 47 1008.8
20260505171142 80 105 1.7 9.6 0.00 0.00 0.00 48 1008.9
20260505171041 80 105 1.7 9.6 0.00 0.00 0.00 47 1008.9
20260505170941 80 243 2.6 9.6 0.00 0.00 0.00 46 1008.9
20260505170841 80 243 1.7 9.6 0.00 0.00 0.00 47 1008.8
20260505170739 80 238 1.7 8.7 0.00 0.00 0.00 48 1008.8
20260505170638 80 246 1.7 8.7 0.00 0.00 0.00 46 1008.9
20260505170539 80 147 1.7 8.7 0.00 0.00 0.00 46 1009.0
20260505170436 80 186 1.7 8.7 0.00 0.00 0.00 46 1009.0
20260505170335 80 188 1.7 8.7 0.00 0.00 0.00 46 1009.0
20260505170236 80 225 1.7 8.7 0.00 0.00 0.00 45 1008.9
20260505170136 80 225 1.7 8.7 0.00 0.00 0.00 46 1008.9
20260505170036 80 238 0.9 8.7 0.00 0.00 0.00 47 1008.9
20260505165936 80 185 0.9 6.1 0.00 0.00 0.00 47 1009.0
20260505165835 80 213 1.7 6.1 0.00 0.00 0.00 46 1009.0
20260505165736 80 213 1.7 6.1 0.00 0.00 0.00 46 1009.0
20260505165650 80 179 1.7 6.1 0.00 0.00 0.00 46 1009.0
20260505165435 80 228 1.7 6.1 0.00 0.00 0.00 47 1009.1
20260505165335 80 123 1.7 7.0 0.00 0.00 0.00 49 1009.1
20260505165236 80 186 1.7 7.0 0.00 0.00 0.00 48 1009.0
20260505165131 80 157 1.7 7.0 0.00 0.00 0.00 49 1009.0
20260505165031 80 126 1.7 7.0 0.00 0.00 0.00 49 1009.0
20260505164929 80 109 1.7 7.0 0.00 0.00 0.00 47 1009.1
20260505164902 80 192 1.7 7.0 0.00 0.00 0.00 50 1009.1
20260505164527 79 248 1.7 8.7 0.00 0.00 0.00 48 1009.1
20260505164427 79 252 1.7 8.7 0.00 0.00 0.00 49 1009.2
20260505164341 79 138 1.7 8.7 0.00 0.00 0.00 48 1009.1
20260505164123 79 225 1.7 8.7 0.00 0.00 0.00 51 1009.2
20260505164024 79 229 1.7 8.7 0.00 0.00 0.00 49 1009.2
20260505163921 79 229 1.7 8.7 0.00 0.00 0.00 48 1009.2
20260505163822 79 228 1.7 8.7 0.00 0.00 0.00 48 1009.2
20260505163722 79 244 0.9 6.1 0.00 0.00 0.00 50 1009.3
20260505163638 79 244 0.9 6.1 0.00 0.00 0.00 47 1009.2
20260505163424 79 240 0.9 4.3 0.00 0.00 0.00 49 1009.3
20260505163323 79 241 1.7 4.3 0.00 0.00 0.00 52 1009.3
20260505163220 78 241 1.7 4.3 0.00 0.00 0.00 49 1009.3
20260505163120 78 241 1.7 4.3 0.00 0.00 0.00 49 1009.3
20260505163021 78 241 1.7 4.3 0.00 0.00 0.00 49 1009.4
20260505162920 78 241 1.7 7.0 0.00 0.00 0.00 50 1009.4
20260505162820 78 169 1.7 7.0 0.00 0.00 0.00 50 1009.3
20260505162720 78 167 1.7 7.0 0.00 0.00 0.00 50 1009.4
20260505162619 78 238 1.7 7.0 0.00 0.00 0.00 49 1009.4
20260505162521 78 245 1.7 7.0 0.00 0.00 0.00 50 1009.4
20260505162419 78 150 1.7 7.0 0.00 0.00 0.00 51 1009.5
20260505162318 78 125 1.7 7.0 0.00 0.00 0.00 50 1009.5
20260505162216 78 193 1.7 7.0 0.00 0.00 0.00 50 1009.5
20260505162115 78 159 1.7 7.0 0.00 0.00 0.00 50 1009.5
20260505162016 77 109 1.7 7.0 0.00 0.00 0.00 51 1009.5
20260505161915 77 128 1.7 4.3 0.00 0.00 0.00 51 1009.5
20260505161811 77 243 1.7 4.3 0.00 0.00 0.00 50 1009.5
20260505161714 77 242 1.7 4.3 0.00 0.00 0.00 50 1009.5
20260505161611 77 242 1.7 4.3 0.00 0.00 0.00 50 1009.5
20260505161512 77 238 1.7 4.3 0.00 0.00 0.00 50 1009.5
20260505161411 78 252 1.7 4.3 0.00 0.00 0.00 52 1009.6
20260505161310 78 253 1.7 6.1 0.00 0.00 0.00 50 1009.6
20260505161207 78 234 1.7 6.1 0.00 0.00 0.00 49 1009.6
20260505161116 78 231 0.9 6.1 0.00 0.00 0.00 51 1009.6
20260505161008 78 231 0.9 6.1 0.00 0.00 0.00 51 1009.6
20260505160907 78 232 0.9 6.1 0.00 0.00 0.00 50 1009.7
20260505160805 78 232 0.9 6.1 0.00 0.00 0.00 50 1009.7
20260505160705 78 235 0.9 6.1 0.00 0.00 0.00 50 1009.6
20260505160604 78 243 0.9 6.1 0.00 0.00 0.00 50 1009.7
20260505160504 78 244 0.9 6.1 0.00 0.00 0.00 50 1009.7
20260505160401 78 242 0.9 5.2 0.00 0.00 0.00 50 1009.6
20260505160302 78 135 0.9 5.2 0.00 0.00 0.00 50 1009.7
20260505160201 78 199 0.9 5.2 0.00 0.00 0.00 51 1009.6
20260505153151 76 150 1.7 5.2 0.00 0.00 0.00 54 1010.1
20260505153051 76 120 0.9 5.2 0.00 0.00 0.00 54 1010.1
20260505152950 76 187 0.9 3.5 0.00 0.00 0.00 53 1010.1
20260505152851 76 151 0.9 3.5 0.00 0.00 0.00 53 1010.1
20260505152748 75 152 0.9 3.5 0.00 0.00 0.00 54 1010.1
20260505152647 75 155 0.9 3.5 0.00 0.00 0.00 55 1010.1
20260505152549 75 113 0.9 3.5 0.00 0.00 0.00 54 1010.2
20260505152446 75 134 0.9 3.5 0.00 0.00 0.00 56 1010.1
20260505152345 75 91 0.9 3.5 0.00 0.00 0.00 58 1010.2
20260505152243 75 215 0.9 3.5 0.00 0.00 0.00 55 1010.2
20260505152143 75 211 0.9 3.5 0.00 0.00 0.00 58 1010.1
20260505152044 75 205 0.9 3.5 0.00 0.00 0.00 57 1010.1
20260505151941 75 205 0.9 3.5 0.00 0.00 0.00 55 1010.2
20260505151841 75 196 0.9 3.5 0.00 0.00 0.00 56 1010.2
20260505151740 75 169 0.9 3.5 0.00 0.00 0.00 57 1010.2
20260505151639 75 169 0.9 3.5 0.00 0.00 0.00 57 1010.2
20260505151540 74 121 0.9 3.5 0.00 0.00 0.00 57 1010.2
20260505151440 74 119 0.9 3.5 0.00 0.00 0.00 58 1010.2
20260505151337 74 143 0.9 2.6 0.00 0.00 0.00 57 1010.2
20260505151237 74 144 0.9 2.6 0.00 0.00 0.00 58 1010.2
20260505151136 74 142 0.9 2.6 0.00 0.00 0.00 59 1010.2
20260505151035 74 130 0.9 3.5 0.00 0.00 0.00 59 1010.2
20260505150934 74 130 0.9 3.5 0.00 0.00 0.00 57 1010.2
20260505150831 74 130 0.9 3.5 0.00 0.00 0.00 59 1010.3
20260505150733 74 151 0.9 3.5 0.00 0.00 0.00 58 1010.3
20260505150631 74 151 0.9 3.5 0.00 0.00 0.00 59 1010.3
20260505150531 74 205 0.9 3.5 0.00 0.00 0.00 58 1010.2
20260505150431 74 153 0.9 6.1 0.00 0.00 0.00 59 1010.3
20260505150333 73 153 0.9 6.1 0.00 0.00 0.00 59 1010.3
20260505150247 73 146 0.9 6.1 0.00 0.00 0.00 58 1010.2
20260505140603 68 246 1.7 8.7 0.00 0.00 0.00 66 1010.9
20260505140501 68 246 1.7 8.7 0.00 0.00 0.00 66 1010.9
20260505140401 68 250 1.7 8.7 0.00 0.00 0.00 67 1010.9
20260505140334 68 178 1.7 8.7 0.00 0.00 0.00 67 1010.9
20260505130240 65 230 0.9 4.3 0.00 0.00 0.00 69 1010.7
20260505130155 65 239 0.9 4.3 0.00 0.00 0.00 71 1010.6
20260505125030 64 240 0.9 3.5 0.00 0.00 0.00 72 1010.7
20260505124930 64 240 0.9 3.5 0.00 0.00 0.00 72 1010.7
20260505124830 64 240 0.9 3.5 0.00 0.00 0.00 72 1010.7
20260505124729 63 239 0.9 3.5 0.00 0.00 0.00 73 1010.7
20260505124629 63 230 0.9 3.5 0.00 0.00 0.00 73 1010.7
20260505124526 63 230 0.9 3.5 0.00 0.00 0.00 73 1010.7
20260505124425 63 229 0.9 2.6 0.00 0.00 0.00 73 1010.5
20260505124326 63 229 0.9 2.6 0.00 0.00 0.00 74 1010.5
20260505124243 63 229 0.0 2.6 0.00 0.00 0.00 74 1010.4
20260505124021 63 229 0.0 2.6 0.00 0.00 0.00 74 1010.4
20260505123924 62 229 0.0 2.6 0.00 0.00 0.00 74 1010.3
20260505123835 62 229 0.0 2.6 0.00 0.00 0.00 75 1010.4
20260505123622 62 229 0.0 1.7 0.00 0.00 0.00 76 1010.3
20260505123518 62 229 0.9 2.6 0.00 0.00 0.00 76 1010.3
20260505123433 62 229 0.9 2.6 0.00 0.00 0.00 76 1010.2
20260505123216 62 229 0.9 2.6 0.00 0.00 0.00 77 1010.2
20260505123117 62 229 0.9 2.6 0.00 0.00 0.00 77 1010.2
20260505123030 61 229 0.9 2.6 0.00 0.00 0.00 77 1010.2
20260505122813 61 229 0.9 2.6 0.00 0.00 0.00 77 1010.3
20260505122713 61 229 0.9 2.6 0.00 0.00 0.00 76 1010.2
20260505122627 61 229 0.9 2.6 0.00 0.00 0.00 76 1010.3
20260505122425 61 229 0.9 2.6 0.00 0.00 0.00 77 1010.3
20260505122207 61 229 0.9 2.6 0.00 0.00 0.00 78 1010.4
20260505122107 61 229 0.0 2.6 0.00 0.00 0.00 78 1010.4
20260505122006 60 229 0.0 2.6 0.00 0.00 0.00 78 1010.4
20260505121907 60 229 0.0 2.6 0.00 0.00 0.00 79 1010.4
20260505121808 60 229 0.0 2.6 0.00 0.00 0.00 78 1010.4
20260505121708 60 229 0.0 2.6 0.00 0.00 0.00 79 1010.4
20260505121606 60 229 0.0 2.6 0.00 0.00 0.00 79 1010.4
20260505121506 60 229 0.0 2.6 0.00 0.00 0.00 80 1010.4
20260505121417 60 229 0.0 2.6 0.00 0.00 0.00 79 1010.4
20260505121234 60 225 0.0 0.0 0.00 0.00 0.00 81 1010.4
20260505120903 60 226 0.0 0.0 0.00 0.00 0.00 82 1010.4
20260505120804 59 226 0.0 0.0 0.00 0.00 0.00 82 1010.4
20260505120748 59 226 0.0 0.0 0.00 0.00 0.00 82 1010.4
20260505120304 59 226 0.0 0.0 0.00 0.00 0.00 81 1010.4
20260505120218 59 226 0.0 0.0 0.00 0.00 0.00 81 1010.4
20260505120004 59 226 0.0 0.0 0.00 0.00 0.00 82 1010.5
20260505115903 59 226 0.0 0.0 0.00 0.00 0.00 82 1010.5
20260505115803 59 226 0.0 1.7 0.00 0.00 0.00 82 1010.5
20260505115659 59 226 0.0 1.7 0.00 0.00 0.00 82 1010.5
20260505115630 58 226 0.0 1.7 0.00 0.00 0.00 83 1010.5
20260505115257 58 226 0.0 1.7 0.00 0.00 0.00 83 1010.5
20260505115157 58 226 0.0 1.7 0.00 0.00 0.00 83 1010.6
20260505115054 58 226 0.0 1.7 0.00 0.00 0.00 83 1010.5
20260505114955 58 226 0.0 1.7 0.00 0.00 0.00 83 1010.6
20260505114855 58 226 0.0 1.7 0.00 0.00 0.00 84 1010.6
20260505114756 58 226 0.0 0.0 0.00 0.00 0.00 84 1010.5
20260505114657 58 226 0.0 0.0 0.00 0.00 0.00 84 1010.5
20260505114556 58 226 0.0 0.0 0.00 0.00 0.00 84 1010.5
20260505114454 57 226 0.0 0.0 0.00 0.00 0.00 84 1010.6
20260505114407 57 226 0.0 0.9 0.00 0.00 0.00 85 1010.6
20260505114150 57 226 0.0 0.9 0.00 0.00 0.00 85 1010.6
20260505114050 57 226 0.0 0.9 0.00 0.00 0.00 85 1010.5
20260505113947 57 226 0.0 0.9 0.00 0.00 0.00 85 1010.5
20260505113903 57 226 0.0 0.9 0.00 0.00 0.00 85 1010.5
20260505113647 56 226 0.0 0.9 0.00 0.00 0.00 85 1010.5
20260505113548 56 226 0.0 0.9 0.00 0.00 0.00 85 1010.6
20260505113447 56 226 0.0 0.9 0.00 0.00 0.00 85 1010.5
20260505113348 56 226 0.0 0.9 0.00 0.00 0.00 85 1010.5
20260505113304 56 226 0.0 0.9 0.00 0.00 0.00 85 1010.5
20260505113047 56 226 0.0 0.9 0.00 0.00 0.00 85 1010.5
20260505112949 56 226 0.0 0.9 0.00 0.00 0.00 85 1010.5
20260505112901 56 226 0.0 0.9 0.00 0.00 0.00 85 1010.5
20260505112646 56 226 0.0 0.9 0.00 0.00 0.00 85 1010.5
20260505112548 56 226 0.0 0.9 0.00 0.00 0.00 85 1010.6
20260505112447 56 226 0.0 0.9 0.00 0.00 0.00 85 1010.6
20260505112349 56 226 0.0 0.9 0.00 0.00 0.00 85 1010.5
20260505112248 56 226 0.0 0.9 0.00 0.00 0.00 85 1010.5
20260505112147 56 226 0.0 0.9 0.00 0.00 0.00 85 1010.6
20260505112047 56 226 0.0 0.9 0.00 0.00 0.00 85 1010.6
20260505111947 56 226 0.0 0.9 0.00 0.00 0.00 85 1010.6
20260505111846 56 226 0.0 0.9 0.00 0.00 0.00 85 1010.5
20260505111746 56 226 0.0 0.9 0.00 0.00 0.00 85 1010.5
20260505111646 56 226 0.0 0.9 0.00 0.00 0.00 85 1010.5
20260505111544 56 226 0.0 0.9 0.00 0.00 0.00 85 1010.5
20260505111446 56 226 0.0 0.9 0.00 0.00 0.00 85 1010.5
20260505111345 56 226 0.0 0.9 0.00 0.00 0.00 85 1010.6
20260505111246 56 226 0.0 0.9 0.00 0.00 0.00 85 1010.5
20260505111200 56 226 0.0 0.0 0.00 0.00 0.00 85 1010.5
20260505110947 56 226 0.0 0.0 0.00 0.00 0.00 85 1010.6
20260505110846 56 226 0.0 0.0 0.00 0.00 0.00 85 1010.5
20260505110744 56 226 0.0 0.0 0.00 0.00 0.00 85 1010.4
20260505110645 56 226 0.0 0.0 0.00 0.00 0.00 85 1010.4
20260505110544 56 226 0.0 0.0 0.00 0.00 0.00 85 1010.4
20260505110447 56 226 0.0 1.7 0.00 0.00 0.00 85 1010.3
20260505110344 56 226 0.0 1.7 0.00 0.00 0.00 85 1010.4
20260505110300 56 226 0.0 1.7 0.00 0.00 0.00 85 1010.4
20260505102046 56 225 0.9 3.5 0.00 0.00 0.00 80 1010.3
20260505101944 56 211 0.0 2.6 0.00 0.00 0.00 80 1010.4
20260505101846 56 210 0.0 2.6 0.00 0.00 0.00 79 1010.3
20260505101746 56 210 0.0 2.6 0.00 0.00 0.00 79 1010.5
20260505101646 56 210 0.0 2.6 0.00 0.00 0.00 79 1010.4
20260505101602 56 206 0.0 1.7 0.00 0.00 0.00 79 1010.4
20260505101347 56 206 0.0 1.7 0.00 0.00 0.00 79 1010.2
20260505101246 56 206 0.0 0.9 0.00 0.00 0.00 79 1010.3
20260505101144 56 206 0.0 0.9 0.00 0.00 0.00 78 1010.3
20260505101045 56 206 0.0 0.0 0.00 0.00 0.00 78 1010.3
20260505100944 56 206 0.0 0.0 0.00 0.00 0.00 78 1010.3
20260505100846 56 206 0.0 0.0 0.00 0.00 0.00 78 1010.3
20260505100745 56 206 0.0 0.0 0.00 0.00 0.00 78 1010.3
20260505100645 56 206 0.0 0.0 0.00 0.00 0.00 78 1010.2
20260505100546 56 206 0.0 0.0 0.00 0.00 0.00 78 1010.2
20260505100446 55 206 0.0 0.9 0.00 0.00 0.00 78 1010.2
20260505100345 55 206 0.0 1.7 0.00 0.00 0.00 78 1010.2
20260505100247 55 206 0.0 1.7 0.00 0.00 0.00 78 1010.2
20260505100146 55 206 0.0 1.7 0.00 0.00 0.00 78 1010.1
20260505100100 55 206 0.0 1.7 0.00 0.00 0.00 78 1010.0
20260505095845 55 206 0.0 1.7 0.00 0.00 0.00 78 1010.0
20260505095746 55 206 0.0 1.7 0.00 0.00 0.00 78 1010.0
20260505095645 55 206 0.0 1.7 0.00 0.00 0.00 78 1010.0
20260505095545 55 206 0.0 1.7 0.00 0.00 0.00 78 1010.0
20260505095446 55 206 0.0 1.7 0.00 0.00 0.00 78 1009.9
20260505095345 55 206 0.0 2.6 0.00 0.00 0.00 78 1009.9
20260505095246 55 206 0.0 2.6 0.00 0.00 0.00 78 1009.9
20260505095201 55 206 0.0 2.6 0.00 0.00 0.00 78 1010.0
20260505094944 55 206 0.0 2.6 0.00 0.00 0.00 78 1009.9
20260505094846 55 206 0.0 2.6 0.00 0.00 0.00 78 1009.9
20260505094747 55 206 0.0 2.6 0.00 0.00 0.00 78 1010.0
20260505094647 55 206 0.0 2.6 0.00 0.00 0.00 78 1010.0
20260505094546 55 206 0.0 2.6 0.00 0.00 0.00 78 1009.9
20260505094446 55 206 0.0 2.6 0.00 0.00 0.00 78 1009.9
20260505094345 55 205 0.0 2.6 0.00 0.00 0.00 78 1009.9
20260505094244 55 205 0.0 2.6 0.00 0.00 0.00 78 1009.9
20260505094145 55 205 0.0 2.6 0.00 0.00 0.00 78 1010.0
20260505094045 55 205 0.9 2.6 0.00 0.00 0.00 78 1009.9
20260505093945 55 205 0.9 3.5 0.00 0.00 0.00 78 1010.0
20260505093845 55 205 0.9 3.5 0.00 0.00 0.00 78 1009.9
20260505093745 55 205 0.9 3.5 0.00 0.00 0.00 78 1009.9
20260505093645 55 204 0.0 3.5 0.00 0.00 0.00 78 1009.9
20260505093556 55 196 0.0 3.5 0.00 0.00 0.00 78 1009.9
20260505093543 55 196 0.0 3.5 0.00 0.00 0.00 78 1009.9
20260505092946 55 183 0.0 0.9 0.00 0.00 0.00 78 1009.8
20260505092845 55 183 0.0 2.6 0.00 0.00 0.00 78 1009.7
20260505092746 55 183 0.0 2.6 0.00 0.00 0.00 78 1009.7
20260505092700 55 182 0.0 2.6 0.00 0.00 0.00 78 1009.8
20260505092445 55 182 0.0 2.6 0.00 0.00 0.00 79 1009.8
20260505092402 55 182 0.0 2.6 0.00 0.00 0.00 78 1009.7
20260505092145 55 182 0.0 2.6 0.00 0.00 0.00 79 1009.8
20260505092100 55 182 0.0 2.6 0.00 0.00 0.00 79 1009.8
20260505091844 55 160 0.0 0.9 0.00 0.00 0.00 79 1009.7
20260505091745 55 160 0.0 0.9 0.00 0.00 0.00 79 1009.7
20260505091646 55 160 0.0 0.9 0.00 0.00 0.00 79 1009.7
20260505091545 55 160 0.0 0.9 0.00 0.00 0.00 79 1009.7
20260505091447 55 160 0.0 0.9 0.00 0.00 0.00 79 1009.6
20260505091345 55 160 0.0 0.9 0.00 0.00 0.00 79 1009.5
20260505091246 55 160 0.0 0.9 0.00 0.00 0.00 79 1009.5
20260505091144 55 160 0.0 0.9 0.00 0.00 0.00 79 1009.5
20260505091040 55 160 0.0 0.9 0.00 0.00 0.00 79 1009.6
20260505090956 55 160 0.0 0.9 0.00 0.00 0.00 79 1009.6
20260505090740 55 159 0.0 0.9 0.00 0.00 0.00 79 1009.6
20260505090642 55 157 0.0 0.0 0.00 0.00 0.00 80 1009.5
20260505090542 55 157 0.0 0.0 0.00 0.00 0.00 79 1009.5
20260505090457 55 157 0.0 0.0 0.00 0.00 0.00 79 1009.5
20260505090242 55 157 0.0 0.0 0.00 0.00 0.00 79 1009.5
20260505090138 55 157 0.0 0.0 0.00 0.00 0.00 79 1009.5
20260505090038 55 157 0.0 0.0 0.00 0.00 0.00 79 1009.5
20260505085938 55 157 0.0 0.0 0.00 0.00 0.00 79 1009.5
20260505085835 55 157 0.0 0.0 0.00 0.00 0.00 79 1009.5
20260505085733 55 157 0.0 0.0 0.00 0.00 0.00 79 1009.5
20260505085648 55 157 0.0 0.0 0.00 0.00 0.00 79 1009.5
20260505085433 55 157 0.0 0.0 0.00 0.00 0.00 79 1009.5
20260505085333 55 157 0.0 0.0 0.00 0.00 0.00 79 1009.5
20260505085236 55 157 0.0 0.0 0.00 0.00 0.00 79 1009.5
20260505085134 55 157 0.0 0.0 0.00 0.00 0.00 79 1009.4
20260505085035 55 157 0.0 0.0 0.00 0.00 0.00 79 1009.4
20260505084933 55 157 0.0 0.0 0.00 0.00 0.00 79 1009.4
20260505084831 55 157 0.0 0.0 0.00 0.00 0.00 79 1009.4
20260505084730 55 157 0.0 0.0 0.00 0.00 0.00 79 1009.4
20260505084629 55 157 0.0 0.0 0.00 0.00 0.00 79 1009.3
20260505084603 55 157 0.0 0.0 0.00 0.00 0.00 79 1009.3
20260505084229 55 157 0.0 0.0 0.00 0.00 0.00 79 1009.3
20260505084128 55 157 0.0 0.0 0.00 0.00 0.00 79 1009.3
20260505084024 55 157 0.0 0.9 0.00 0.00 0.00 79 1009.3
20260505083942 55 157 0.0 0.9 0.00 0.00 0.00 80 1009.3
20260505083723 55 157 0.0 1.7 0.00 0.00 0.00 80 1009.4
20260505083640 55 157 0.0 1.7 0.00 0.00 0.00 80 1009.4
20260505083422 54 157 0.0 1.7 0.00 0.00 0.00 80 1009.3
20260505083321 54 157 0.0 1.7 0.00 0.00 0.00 80 1009.4
20260505083222 54 157 0.0 1.7 0.00 0.00 0.00 80 1009.4
20260505083121 54 157 0.0 1.7 0.00 0.00 0.00 80 1009.4
20260505083022 54 157 0.0 1.7 0.00 0.00 0.00 81 1009.4
20260505082922 54 157 0.0 1.7 0.00 0.00 0.00 81 1009.4
20260505082823 54 157 0.0 1.7 0.00 0.00 0.00 81 1009.4
20260505082721 54 157 0.0 1.7 0.00 0.00 0.00 81 1009.4
20260505082623 54 148 0.0 1.7 0.00 0.00 0.00 81 1009.4
20260505082521 54 147 0.0 1.7 0.00 0.00 0.00 82 1009.4
20260505082438 54 147 0.0 1.7 0.00 0.00 0.00 81 1009.4
20260505082221 53 146 0.0 0.9 0.00 0.00 0.00 82 1009.5
20260505082121 53 135 0.0 0.9 0.00 0.00 0.00 82 1009.5
20260505082020 53 134 0.0 0.0 0.00 0.00 0.00 82 1009.5
20260505081918 53 134 0.0 0.0 0.00 0.00 0.00 82 1009.5
20260505081818 53 134 0.0 0.0 0.00 0.00 0.00 82 1009.5
20260505081718 53 134 0.0 0.0 0.00 0.00 0.00 83 1009.5
20260505081618 53 134 0.0 0.0 0.00 0.00 0.00 83 1009.5
20260505081518 53 134 0.0 0.0 0.00 0.00 0.00 83 1009.4
20260505081417 53 134 0.0 0.0 0.00 0.00 0.00 83 1009.4
20260505081317 53 123 0.0 0.0 0.00 0.00 0.00 83 1009.5
20260505081213 53 123 0.0 0.0 0.00 0.00 0.00 83 1009.5
20260505081112 53 123 0.0 0.0 0.00 0.00 0.00 83 1009.5
20260505081014 53 123 0.0 0.0 0.00 0.00 0.00 83 1009.5
20260505080914 53 123 0.0 0.0 0.00 0.00 0.00 83 1009.5
20260505080814 53 123 0.0 0.0 0.00 0.00 0.00 83 1009.5
20260505080710 53 123 0.0 0.0 0.00 0.00 0.00 84 1009.5
20260505080610 53 123 0.0 0.0 0.00 0.00 0.00 84 1009.5
20260505080552 53 123 0.0 0.0 0.00 0.00 0.00 84 1009.5
20260505080106 52 123 0.0 0.0 0.00 0.00 0.00 84 1009.5
20260505080005 52 123 0.0 0.0 0.00 0.00 0.00 84 1009.6
20260505075925 52 123 0.0 0.0 0.00 0.00 0.00 84 1009.6
20260505075753 52 123 0.0 0.0 0.00 0.00 0.00 85 1009.6
20260505075330 52 123 0.0 0.0 0.00 0.00 0.00 85 1009.5
20260505074959 52 123 0.0 0.0 0.00 0.00 0.00 86 1009.5
20260505074912 52 123 0.0 0.0 0.00 0.00 0.00 86 1009.5
20260505074656 52 123 0.0 0.9 0.00 0.00 0.00 86 1009.5
20260505074612 51 123 0.0 0.9 0.00 0.00 0.00 86 1009.4
20260505074356 51 123 0.0 0.9 0.00 0.00 0.00 86 1009.4
20260505074252 51 123 0.0 0.9 0.00 0.00 0.00 87 1009.4
20260505074154 51 123 0.0 0.9 0.00 0.00 0.00 87 1009.5
20260505074053 51 123 0.0 0.9 0.00 0.00 0.00 87 1009.5
20260505073953 51 123 0.0 0.9 0.00 0.00 0.00 87 1009.4
20260505073848 51 123 0.0 0.9 0.00 0.00 0.00 87 1009.5
20260505073746 51 123 0.0 0.0 0.00 0.00 0.00 87 1009.5
20260505073646 51 123 0.0 0.0 0.00 0.00 0.00 87 1009.5
20260505073547 51 123 0.0 0.0 0.00 0.00 0.00 87 1009.5
20260505073444 51 123 0.0 0.0 0.00 0.00 0.00 87 1009.4
20260505073343 51 123 0.0 0.0 0.00 0.00 0.00 87 1009.4
20260505073243 51 123 0.0 0.0 0.00 0.00 0.00 87 1009.4
20260505073142 50 123 0.0 0.0 0.00 0.00 0.00 87 1009.4
20260505073042 50 123 0.0 0.0 0.00 0.00 0.00 87 1009.4
20260505073009 50 123 0.0 0.0 0.00 0.00 0.00 87 1009.4
20260505072638 50 123 0.0 0.0 0.00 0.00 0.00 87 1009.4
20260505072536 50 123 0.0 0.0 0.00 0.00 0.00 87 1009.4
20260505072437 50 123 0.0 0.0 0.00 0.00 0.00 87 1009.4
20260505072342 50 123 0.0 0.0 0.00 0.00 0.00 87 1009.4
20260505072236 50 123 0.0 0.0 0.00 0.00 0.00 87 1009.4
20260505072134 50 123 0.0 0.0 0.00 0.00 0.00 87 1009.3
20260505072033 50 123 0.0 0.0 0.00 0.00 0.00 87 1009.3
20260505071933 50 123 0.0 0.0 0.00 0.00 0.00 87 1009.4
20260505071831 50 123 0.0 0.0 0.00 0.00 0.00 87 1009.3
20260505071730 50 123 0.0 0.0 0.00 0.00 0.00 87 1009.3
20260505071631 50 123 0.0 0.0 0.00 0.00 0.00 87 1009.3
20260505071530 50 123 0.0 0.0 0.00 0.00 0.00 87 1009.3
20260505071443 50 123 0.0 0.0 0.00 0.00 0.00 87 1009.3
20260505071228 50 123 0.0 0.0 0.00 0.00 0.00 87 1009.3
20260505071128 50 123 0.0 0.0 0.00 0.00 0.00 87 1009.3
20260505071025 50 123 0.0 0.0 0.00 0.00 0.00 86 1009.3
20260505070924 50 123 0.0 0.0 0.00 0.00 0.00 87 1009.3
20260505070825 50 123 0.0 0.0 0.00 0.00 0.00 86 1009.3
20260505070722 50 123 0.0 0.0 0.00 0.00 0.00 86 1009.4
20260505070624 49 123 0.0 0.0 0.00 0.00 0.00 86 1009.4
20260505070520 49 123 0.0 0.0 0.00 0.00 0.00 86 1009.4
20260505070420 49 123 0.0 0.0 0.00 0.00 0.00 86 1009.4
20260505070334 49 123 0.0 0.0 0.00 0.00 0.00 86 1009.4
20260505070117 49 123 0.0 0.0 0.00 0.00 0.00 86 1009.4
20260505070015 49 123 0.0 0.0 0.00 0.00 0.00 86 1009.4
20260505065916 49 123 0.0 0.0 0.00 0.00 0.00 86 1009.5
20260505065815 49 123 0.0 0.0 0.00 0.00 0.00 85 1009.4
20260505065714 49 123 0.0 0.0 0.00 0.00 0.00 85 1009.4
20260505065614 49 123 0.0 0.0 0.00 0.00 0.00 85 1009.4
20260505065511 49 123 0.0 0.0 0.00 0.00 0.00 85 1009.4
20260505065412 49 123 0.0 0.0 0.00 0.00 0.00 85 1009.4
20260505065310 49 123 0.0 0.0 0.00 0.00 0.00 85 1009.4
20260505065210 49 123 0.0 0.0 0.00 0.00 0.00 85 1009.4
20260505065123 49 123 0.0 0.0 0.00 0.00 0.00 85 1009.5
20260505064906 49 123 0.0 0.0 0.00 0.00 0.00 85 1009.5
20260505064807 49 123 0.0 0.0 0.00 0.00 0.00 85 1009.5
20260505064705 49 123 0.0 0.0 0.00 0.00 0.00 85 1009.6
20260505064605 49 123 0.0 0.0 0.00 0.00 0.00 85 1009.5
20260505064532 49 123 0.0 0.0 0.00 0.00 0.00 85 1009.5
20260505064201 49 123 0.0 0.0 0.00 0.00 0.00 85 1009.5
20260505064114 49 123 0.0 0.0 0.00 0.00 0.00 85 1009.5
20260505063912 49 123 0.0 0.0 0.00 0.00 0.00 85 1009.5
20260505063656 49 123 0.0 0.0 0.00 0.00 0.00 85 1009.6
20260505063558 49 123 0.0 0.0 0.00 0.00 0.00 85 1009.6
20260505063456 49 123 0.0 0.0 0.00 0.00 0.00 85 1009.6
20260505063356 49 123 0.0 0.0 0.00 0.00 0.00 85 1009.6
20260505063258 49 123 0.0 0.0 0.00 0.00 0.00 85 1009.6
20260505063157 49 123 0.0 0.0 0.00 0.00 0.00 85 1009.7
20260505063110 49 123 0.0 0.0 0.00 0.00 0.00 85 1009.6
20260505062856 49 123 0.0 0.0 0.00 0.00 0.00 85 1009.6
20260505062810 49 123 0.0 0.0 0.00 0.00 0.00 85 1009.6
20260505062555 49 123 0.0 0.0 0.00 0.00 0.00 84 1009.6
20260505062455 49 123 0.0 0.0 0.00 0.00 0.00 84 1009.7
20260505062356 49 123 0.0 0.0 0.00 0.00 0.00 84 1009.7
20260505062308 49 123 0.0 0.0 0.00 0.00 0.00 84 1009.7
20260505062050 49 123 0.0 0.0 0.00 0.00 0.00 84 1009.7
20260505061951 49 123 0.0 0.0 0.00 0.00 0.00 84 1009.7
20260505061850 49 123 0.0 0.0 0.00 0.00 0.00 84 1009.7
20260505061749 49 123 0.0 0.0 0.00 0.00 0.00 84 1009.7
20260505061650 49 123 0.0 0.0 0.00 0.00 0.00 84 1009.7
20260505061547 49 123 0.0 0.0 0.00 0.00 0.00 84 1009.7
20260505061449 49 123 0.0 0.0 0.00 0.00 0.00 84 1009.7
20260505061400 49 123 0.0 0.0 0.00 0.00 0.00 84 1009.7
20260505061145 50 123 0.0 0.0 0.00 0.00 0.00 84 1009.8
20260505061058 50 123 0.0 0.0 0.00 0.00 0.00 84 1009.8
20260505060841 50 123 0.0 0.0 0.00 0.00 0.00 84 1009.7
20260505060741 50 123 0.0 0.0 0.00 0.00 0.00 83 1009.7
20260505060641 50 123 0.0 0.0 0.00 0.00 0.00 83 1009.7
20260505060540 50 123 0.0 0.0 0.00 0.00 0.00 83 1009.7
20260505060509 50 123 0.0 0.0 0.00 0.00 0.00 83 1009.7
20260505060138 50 123 0.0 0.0 0.00 0.00 0.00 83 1009.7
20260505060034 50 123 0.0 0.0 0.00 0.00 0.00 83 1009.7
20260505055935 50 123 0.0 0.0 0.00 0.00 0.00 83 1009.8
20260505055835 50 123 0.0 0.0 0.00 0.00 0.00 83 1009.7
20260505055732 50 123 0.0 0.0 0.00 0.00 0.00 83 1009.8
20260505055632 50 123 0.0 0.0 0.00 0.00 0.00 83 1009.7
20260505055530 50 123 0.0 0.0 0.00 0.00 0.00 83 1009.7
20260505055433 50 123 0.0 0.0 0.00 0.00 0.00 83 1009.8
20260505055344 50 123 0.0 0.0 0.00 0.00 0.00 83 1009.8
20260505055128 50 123 0.0 0.0 0.00 0.00 0.00 83 1009.7
20260505055029 50 123 0.0 0.0 0.00 0.00 0.00 83 1009.8
20260505054926 51 123 0.0 0.0 0.00 0.00 0.00 83 1009.8
20260505054841 51 123 0.0 0.0 0.00 0.00 0.00 83 1009.8
20260505054625 51 123 0.0 0.0 0.00 0.00 0.00 82 1009.8
20260505054525 51 123 0.0 0.0 0.00 0.00 0.00 82 1009.8
20260505054422 51 123 0.0 0.0 0.00 0.00 0.00 82 1009.8
20260505054321 51 123 0.0 0.0 0.00 0.00 0.00 82 1009.8
20260505054222 51 123 0.0 0.0 0.00 0.00 0.00 82 1009.8
20260505054121 51 123 0.0 0.0 0.00 0.00 0.00 82 1009.9
20260505054035 51 123 0.0 0.0 0.00 0.00 0.00 82 1009.9
20260505053820 51 123 0.0 0.0 0.00 0.00 0.00 82 1009.9
20260505053717 51 123 0.0 0.0 0.00 0.00 0.00 82 1009.9
20260505053630 51 123 0.0 0.0 0.00 0.00 0.00 82 1009.8
20260505053415 51 123 0.0 0.0 0.00 0.00 0.00 82 1009.8
20260505053315 51 123 0.0 0.0 0.00 0.00 0.00 82 1009.8
20260505053212 51 123 0.0 0.0 0.00 0.00 0.00 82 1009.8
20260505053115 51 123 0.0 0.0 0.00 0.00 0.00 82 1009.8
20260505053028 51 123 0.0 0.0 0.00 0.00 0.00 82 1009.8
20260505052810 51 123 0.0 0.0 0.00 0.00 0.00 82 1009.8
20260505052709 51 123 0.0 0.0 0.00 0.00 0.00 82 1009.8
20260505052626 51 123 0.0 0.0 0.00 0.00 0.00 82 1009.9
20260505052407 51 123 0.0 0.0 0.00 0.00 0.00 81 1009.9
20260505052307 51 123 0.0 0.0 0.00 0.00 0.00 81 1009.9
20260505052205 51 123 0.0 0.0 0.00 0.00 0.00 81 1009.9
20260505052106 51 123 0.0 0.0 0.00 0.00 0.00 81 1009.9
20260505052018 51 123 0.0 0.0 0.00 0.00 0.00 81 1009.9
20260505051804 51 123 0.0 0.0 0.00 0.00 0.00 82 1009.9
20260505051700 51 123 0.0 0.0 0.00 0.00 0.00 82 1009.9
20260505051602 51 123 0.0 0.0 0.00 0.00 0.00 81 1009.9
20260505051458 51 123 0.0 0.0 0.00 0.00 0.00 81 1009.9
20260505051413 51 123 0.0 0.0 0.00 0.00 0.00 82 1009.9
20260505051211 51 123 0.0 0.0 0.00 0.00 0.00 82 1009.9
20260505050955 51 123 0.0 0.0 0.00 0.00 0.00 82 1009.8
20260505050855 51 123 0.0 0.0 0.00 0.00 0.00 82 1009.9
20260505050756 51 123 0.0 0.0 0.00 0.00 0.00 82 1009.9
20260505050653 51 123 0.0 0.0 0.00 0.00 0.00 82 1009.8
20260505050554 51 123 0.0 0.0 0.00 0.00 0.00 82 1009.9
20260505050452 51 123 0.0 0.0 0.00 0.00 0.00 82 1009.8
20260505050350 51 123 0.0 0.0 0.00 0.00 0.00 82 1009.9
20260505050252 51 123 0.0 0.0 0.00 0.00 0.00 82 1009.8
20260505050150 51 123 0.0 0.0 0.00 0.00 0.00 82 1009.9
20260505041716 51 123 0.0 0.0 0.00 0.00 0.00 78 1010.1
20260505041617 51 123 0.0 0.0 0.00 0.00 0.00 78 1010.0
20260505041514 51 123 0.0 0.0 0.00 0.00 0.00 78 1010.1
20260505041413 51 123 0.0 0.0 0.00 0.00 0.00 78 1010.1
20260505041312 52 123 0.0 0.0 0.00 0.00 0.00 78 1010.1
20260505041212 52 123 0.0 0.0 0.00 0.00 0.00 78 1010.1
20260505041110 52 123 0.0 0.0 0.00 0.00 0.00 78 1010.1
20260505041011 52 123 0.0 0.0 0.00 0.00 0.00 78 1010.1
20260505040908 52 123 0.0 0.0 0.00 0.00 0.00 78 1010.1
20260505040808 52 123 0.0 0.0 0.00 0.00 0.00 78 1010.1
20260505040709 52 123 0.0 0.0 0.00 0.00 0.00 77 1010.1
20260505040606 52 123 0.0 0.0 0.00 0.00 0.00 78 1010.1
20260505040506 52 123 0.0 0.0 0.00 0.00 0.00 78 1010.1
20260505040404 52 123 0.0 0.0 0.00 0.00 0.00 77 1010.1
20260505040303 52 123 0.0 0.0 0.00 0.00 0.00 77 1010.1
20260505040205 52 123 0.0 0.0 0.00 0.00 0.00 77 1010.0
20260505040103 52 123 0.0 0.0 0.00 0.00 0.00 77 1010.1
20260505040016 52 123 0.0 0.0 0.00 0.00 0.00 77 1010.0
20260505035800 52 123 0.0 0.0 0.00 0.00 0.00 77 1010.0
20260505035658 52 123 0.0 0.0 0.00 0.00 0.00 77 1010.0
20260505035558 52 123 0.0 0.0 0.00 0.00 0.00 76 1010.0
20260505035456 52 123 0.0 0.0 0.00 0.00 0.00 76 1010.0
20260505035357 52 123 0.0 0.0 0.00 0.00 0.00 76 1010.0
20260505035254 52 123 0.0 0.0 0.00 0.00 0.00 76 1010.1
20260505035156 52 123 0.0 0.0 0.00 0.00 0.00 76 1010.1
20260505035054 52 123 0.0 0.0 0.00 0.00 0.00 76 1010.1
20260505034953 53 123 0.0 0.0 0.00 0.00 0.00 75 1010.0
20260505034852 53 123 0.0 0.0 0.00 0.00 0.00 75 1010.0
20260505034753 53 123 0.0 0.0 0.00 0.00 0.00 75 1010.1
20260505034651 53 123 0.0 0.0 0.00 0.00 0.00 75 1010.1
20260505034553 53 123 0.0 0.0 0.00 0.00 0.00 75 1010.1
20260505034449 53 123 0.0 0.0 0.00 0.00 0.00 75 1010.0
20260505034347 53 123 0.0 0.0 0.00 0.00 0.00 74 1010.0
20260505034247 53 123 0.0 0.0 0.00 0.00 0.00 74 1010.0
20260505034148 53 123 0.0 0.0 0.00 0.00 0.00 74 1010.0
20260505034048 53 123 0.0 0.0 0.00 0.00 0.00 75 1010.0
20260505034000 53 123 0.0 0.0 0.00 0.00 0.00 74 1010.0
20260505033745 53 123 0.0 0.0 0.00 0.00 0.00 74 1010.0
20260505033643 53 123 0.0 0.0 0.00 0.00 0.00 74 1010.0
20260505033544 53 123 0.0 0.0 0.00 0.00 0.00 74 1010.1
20260505033442 53 123 0.0 0.0 0.00 0.00 0.00 74 1010.0
20260505033341 53 123 0.0 0.0 0.00 0.00 0.00 74 1010.1
20260505033254 53 123 0.0 0.0 0.00 0.00 0.00 74 1010.1
20260505033039 54 123 0.0 0.0 0.00 0.00 0.00 74 1010.1
20260505032936 54 123 0.0 0.0 0.00 0.00 0.00 74 1010.1
20260505032835 54 123 0.0 0.0 0.00 0.00 0.00 74 1010.1
20260505032737 54 123 0.0 0.0 0.00 0.00 0.00 74 1010.2
20260505032635 54 123 0.0 0.0 0.00 0.00 0.00 74 1010.2
20260505032534 54 123 0.0 0.0 0.00 0.00 0.00 73 1010.2
20260505032432 54 123 0.0 0.0 0.00 0.00 0.00 73 1010.2
20260505032333 54 123 0.0 0.0 0.00 0.00 0.00 73 1010.2
20260505032230 54 123 0.0 0.0 0.00 0.00 0.00 73 1010.2
20260505032130 54 123 0.0 0.0 0.00 0.00 0.00 73 1010.2
20260505032031 54 123 0.0 0.0 0.00 0.00 0.00 73 1010.1
20260505031959 54 123 0.0 0.0 0.00 0.00 0.00 72 1010.1
20260505031628 54 123 0.0 0.0 0.00 0.00 0.00 72 1010.1
20260505031527 54 123 0.0 0.0 0.00 0.00 0.00 72 1010.1
20260505031425 54 123 0.0 0.0 0.00 0.00 0.00 72 1010.2
20260505031325 55 123 0.0 0.0 0.00 0.00 0.00 72 1010.1
20260505031223 55 123 0.0 0.0 0.00 0.00 0.00 72 1010.2
20260505031122 55 123 0.0 0.0 0.00 0.00 0.00 72 1010.2
20260505031022 55 123 0.0 0.9 0.00 0.00 0.00 72 1010.2
20260505030920 55 123 0.0 1.7 0.00 0.00 0.00 72 1010.2
20260505030821 55 123 0.0 1.7 0.00 0.00 0.00 72 1010.2
20260505030719 55 123 0.0 1.7 0.00 0.00 0.00 72 1010.2
20260505030620 55 123 0.0 1.7 0.00 0.00 0.00 71 1010.2
20260505030517 55 123 0.0 1.7 0.00 0.00 0.00 71 1010.2
20260505030416 55 123 0.0 1.7 0.00 0.00 0.00 70 1010.2
20260505030316 55 123 0.0 1.7 0.00 0.00 0.00 70 1010.2
20260505030216 55 123 0.0 1.7 0.00 0.00 0.00 70 1010.2
20260505030114 55 123 0.0 1.7 0.00 0.00 0.00 70 1010.2
20260505030015 55 123 0.0 1.7 0.00 0.00 0.00 70 1010.2
20260505025913 55 123 0.0 0.9 0.00 0.00 0.00 70 1010.2
20260505025826 55 123 0.0 0.9 0.00 0.00 0.00 70 1010.2
20260505025612 55 123 0.0 0.9 0.00 0.00 0.00 70 1010.2
20260505025510 55 123 0.0 0.9 0.00 0.00 0.00 70 1010.2
20260505025410 55 123 0.0 0.9 0.00 0.00 0.00 70 1010.3
20260505025307 56 123 0.0 0.9 0.00 0.00 0.00 70 1010.3
20260505025208 56 123 0.0 0.9 0.00 0.00 0.00 69 1010.3
20260505025106 56 123 0.0 0.9 0.00 0.00 0.00 69 1010.2
20260505025008 56 123 0.0 0.9 0.00 0.00 0.00 69 1010.3
20260505024920 56 123 0.0 1.7 0.00 0.00 0.00 69 1010.3
20260505024703 56 123 0.0 1.7 0.00 0.00 0.00 69 1010.2
20260505024602 56 123 0.0 1.7 0.00 0.00 0.00 69 1010.2
20260505024501 56 123 0.0 1.7 0.00 0.00 0.00 69 1010.2
20260505024401 56 123 0.0 1.7 0.00 0.00 0.00 69 1010.2
20260505024259 56 123 0.0 1.7 0.00 0.00 0.00 69 1010.2
20260505024159 56 123 0.0 1.7 0.00 0.00 0.00 68 1010.2
20260505024100 56 123 0.0 1.7 0.00 0.00 0.00 68 1010.3
20260505023958 56 123 0.0 1.7 0.00 0.00 0.00 68 1010.3
20260505023858 56 123 0.0 0.9 0.00 0.00 0.00 68 1010.3
20260505023758 56 123 0.0 0.9 0.00 0.00 0.00 68 1010.3
20260505023655 56 123 0.0 0.9 0.00 0.00 0.00 68 1010.3
20260505023554 56 123 0.0 0.9 0.00 0.00 0.00 67 1010.4
20260505023454 56 123 0.0 0.9 0.00 0.00 0.00 67 1010.3
20260505023353 56 123 0.0 0.9 0.00 0.00 0.00 67 1010.3
20260505023252 56 123 0.0 1.7 0.00 0.00 0.00 67 1010.3
20260505023151 57 123 0.0 1.7 0.00 0.00 0.00 66 1010.3
20260505023106 57 123 0.0 1.7 0.00 0.00 0.00 66 1010.3
20260505022849 57 123 0.0 1.7 0.00 0.00 0.00 66 1010.3
20260505022748 57 123 0.0 1.7 0.00 0.00 0.00 66 1010.3
20260505022650 57 123 0.0 1.7 0.00 0.00 0.00 66 1010.4
20260505022548 57 123 0.0 1.7 0.00 0.00 0.00 65 1010.4
20260505022519 57 123 0.0 1.7 0.00 0.00 0.00 65 1010.4
20260505022203 57 123 0.0 0.0 0.00 0.00 0.00 65 1010.3
20260505021945 57 123 0.0 0.0 0.00 0.00 0.00 65 1010.3
20260505021844 57 123 0.0 0.0 0.00 0.00 0.00 65 1010.3
20260505021757 57 123 0.0 0.0 0.00 0.00 0.00 64 1010.3
20260505021543 58 123 0.0 0.0 0.00 0.00 0.00 64 1010.3
20260505021440 58 123 0.0 0.0 0.00 0.00 0.00 64 1010.3
20260505021340 58 123 0.0 0.0 0.00 0.00 0.00 64 1010.2
20260505021241 58 123 0.0 0.0 0.00 0.00 0.00 64 1010.2
20260505021138 58 123 0.0 0.0 0.00 0.00 0.00 64 1010.2
20260505021036 58 123 0.0 0.0 0.00 0.00 0.00 64 1010.3
20260505020936 58 123 0.0 0.0 0.00 0.00 0.00 63 1010.3
20260505020837 58 123 0.0 0.0 0.00 0.00 0.00 63 1010.3
20260505020737 58 123 0.0 0.0 0.00 0.00 0.00 63 1010.3
20260505020634 58 123 0.0 0.0 0.00 0.00 0.00 63 1010.3
20260505020535 58 123 0.0 0.0 0.00 0.00 0.00 63 1010.2
20260505020434 58 123 0.0 0.0 0.00 0.00 0.00 63 1010.3
20260505020332 58 123 0.0 0.0 0.00 0.00 0.00 63 1010.3
20260505020234 58 123 0.0 0.0 0.00 0.00 0.00 63 1010.3
20260505020130 59 123 0.0 0.0 0.00 0.00 0.00 62 1010.2
20260505020031 59 123 0.0 0.0 0.00 0.00 0.00 62 1010.3
20260505015928 59 123 0.0 1.7 0.00 0.00 0.00 62 1010.3
20260505015828 59 123 0.0 1.7 0.00 0.00 0.00 62 1010.3
20260505015728 59 123 0.0 1.7 0.00 0.00 0.00 62 1010.2
20260505015626 59 123 0.0 1.7 0.00 0.00 0.00 62 1010.3
20260505015524 59 123 0.0 1.7 0.00 0.00 0.00 62 1010.3
20260505015425 59 123 0.0 1.7 0.00 0.00 0.00 62 1010.2
20260505015325 59 123 0.0 1.7 0.00 0.00 0.00 61 1010.2
20260505015226 59 123 0.0 1.7 0.00 0.00 0.00 61 1010.2
20260505015123 59 123 0.0 1.7 0.00 0.00 0.00 61 1010.2
20260505015036 59 123 0.0 1.7 0.00 0.00 0.00 61 1010.1
20260505014849 60 123 0.0 0.0 0.00 0.00 0.00 61 1010.0
20260505014518 60 123 0.0 0.0 0.00 0.00 0.00 59 1010.0
20260505014416 60 123 0.0 0.0 0.00 0.00 0.00 59 1010.0
20260505014318 60 123 0.0 0.0 0.00 0.00 0.00 59 1010.0
20260505014216 60 123 0.0 0.0 0.00 0.00 0.00 58 1010.0
20260505014115 60 123 0.0 0.0 0.00 0.00 0.00 58 1010.1
20260505014012 60 123 0.0 0.0 0.00 0.00 0.00 58 1010.0
20260505013913 60 123 0.0 0.0 0.00 0.00 0.00 58 1010.0
20260505013812 60 123 0.0 0.9 0.00 0.00 0.00 58 1010.0
20260505013713 60 123 0.0 1.7 0.00 0.00 0.00 57 1010.1
20260505013610 61 123 0.0 1.7 0.00 0.00 0.00 57 1010.0
20260505013511 61 123 0.0 1.7 0.00 0.00 0.00 57 1010.1
20260505013409 61 123 0.0 1.7 0.00 0.00 0.00 57 1010.0
20260505013309 61 123 0.0 1.7 0.00 0.00 0.00 57 1010.0
20260505013209 61 123 0.0 1.7 0.00 0.00 0.00 57 1010.0
20260505013121 61 123 0.0 1.7 0.00 0.00 0.00 57 1010.0
20260505012905 61 123 0.0 1.7 0.00 0.00 0.00 56 1010.0
20260505012805 61 123 0.0 1.7 0.00 0.00 0.00 56 1010.0
20260505012705 61 123 0.0 0.9 0.00 0.00 0.00 56 1010.0
20260505012602 61 123 0.0 0.9 0.00 0.00 0.00 56 1010.0
20260505012501 62 123 0.0 0.9 0.00 0.00 0.00 55 1010.0
20260505012400 62 123 0.0 0.9 0.00 0.00 0.00 55 1010.0
20260505012301 62 123 0.0 0.9 0.00 0.00 0.00 55 1010.0
20260505012214 62 123 0.0 0.9 0.00 0.00 0.00 55 1010.0
20260505011956 62 123 0.0 0.0 0.00 0.00 0.00 54 1009.9
20260505011857 62 123 0.0 0.0 0.00 0.00 0.00 54 1009.9
20260505011756 62 123 0.0 0.0 0.00 0.00 0.00 54 1009.9
20260505011656 62 123 0.0 0.0 0.00 0.00 0.00 54 1009.8
20260505011555 62 123 0.0 0.0 0.00 0.00 0.00 53 1009.9
20260505011454 62 123 0.0 0.0 0.00 0.00 0.00 53 1009.8
20260505011353 62 123 0.0 0.0 0.00 0.00 0.00 53 1009.8
20260505011252 63 123 0.0 0.0 0.00 0.00 0.00 53 1009.8
20260505011152 63 123 0.0 0.0 0.00 0.00 0.00 53 1009.7
20260505011053 63 123 0.0 0.0 0.00 0.00 0.00 52 1009.7
20260505010953 63 123 0.0 0.0 0.00 0.00 0.00 52 1009.7
20260505010852 63 123 0.0 0.0 0.00 0.00 0.00 52 1009.7
20260505010752 63 123 0.0 0.0 0.00 0.00 0.00 52 1009.7
20260505010650 63 123 0.0 0.9 0.00 0.00 0.00 51 1009.7
20260505010548 63 123 0.0 0.9 0.00 0.00 0.00 51 1009.7
20260505010448 63 123 0.0 0.9 0.00 0.00 0.00 51 1009.7
20260505010348 63 123 0.0 0.9 0.00 0.00 0.00 51 1009.7
20260505010245 64 123 0.0 0.9 0.00 0.00 0.00 51 1009.6
20260505010147 64 123 0.0 0.9 0.00 0.00 0.00 51 1009.6
20260505010046 64 123 0.0 0.9 0.00 0.00 0.00 51 1009.6
20260505005946 64 123 0.0 0.9 0.00 0.00 0.00 50 1009.5
20260505005843 64 123 0.0 0.9 0.00 0.00 0.00 50 1009.6
20260505005743 64 123 0.0 0.9 0.00 0.00 0.00 50 1009.5
20260505005643 64 123 0.0 0.0 0.00 0.00 0.00 50 1009.5
20260505005541 64 123 0.0 0.9 0.00 0.00 0.00 50 1009.5
20260505005441 64 123 0.0 0.9 0.00 0.00 0.00 49 1009.5
20260505005341 64 123 0.0 0.9 0.00 0.00 0.00 49 1009.5
20260505005238 64 123 0.0 0.9 0.00 0.00 0.00 49 1009.5
20260505005139 64 123 0.0 0.9 0.00 0.00 0.00 49 1009.5
20260505005052 64 123 0.0 3.5 0.00 0.00 0.00 49 1009.6
20260505004844 64 122 0.0 3.5 0.00 0.00 0.00 49 1009.6
20260505004635 65 122 0.0 3.5 0.00 0.00 0.00 49 1009.5
20260505004602 65 122 0.0 3.5 0.00 0.00 0.00 49 1009.5
20260505004232 65 122 0.0 3.5 0.00 0.00 0.00 49 1009.5
20260505004131 65 122 0.0 3.5 0.00 0.00 0.00 49 1009.5
20260505004029 65 157 0.0 0.9 0.00 0.00 0.00 49 1009.5
20260505003929 65 157 0.0 0.9 0.00 0.00 0.00 48 1009.4
20260505003826 65 157 0.0 0.9 0.00 0.00 0.00 48 1009.5
20260505003726 65 157 0.0 0.9 0.00 0.00 0.00 48 1009.4
20260505003657 65 157 0.0 0.9 0.00 0.00 0.00 48 1009.4
20260505003325 65 159 0.0 0.0 0.00 0.00 0.00 48 1009.4
20260505003226 65 159 0.0 0.0 0.00 0.00 0.00 48 1009.4
20260505003123 65 159 0.0 0.0 0.00 0.00 0.00 48 1009.4
20260505003022 65 159 0.0 0.0 0.00 0.00 0.00 48 1009.4
20260505002920 65 159 0.0 0.0 0.00 0.00 0.00 48 1009.4
20260505002837 65 159 0.0 0.0 0.00 0.00 0.00 47 1009.4
20260505002621 66 159 0.0 0.0 0.00 0.00 0.00 47 1009.4
20260505002521 66 159 0.0 0.0 0.00 0.00 0.00 47 1009.4
20260505002434 66 159 0.0 0.0 0.00 0.00 0.00 47 1009.4
20260505002216 66 158 0.0 0.0 0.00 0.00 0.00 47 1009.3
20260505002118 66 158 0.0 0.0 0.00 0.00 0.00 47 1009.3
20260505002016 66 159 0.0 0.0 0.00 0.00 0.00 47 1009.3
20260505001916 66 159 0.0 0.0 0.00 0.00 0.00 47 1009.3
20260505001831 66 159 0.0 1.7 0.00 0.00 0.00 47 1009.3
20260505001629 66 159 0.0 3.5 0.00 0.00 0.00 46 1009.3
20260505001411 66 159 0.0 3.5 0.00 0.00 0.00 46 1009.2
20260505001311 66 159 0.0 3.5 0.00 0.00 0.00 46 1009.2
20260505001211 66 159 0.0 3.5 0.00 0.00 0.00 46 1009.2
20260505001109 66 159 0.0 3.5 0.00 0.00 0.00 46 1009.2
20260505001009 67 159 0.0 3.5 0.00 0.00 0.00 46 1009.1
20260505000909 67 159 0.0 3.5 0.00 0.00 0.00 46 1009.1
20260505000807 67 159 0.0 3.5 0.00 0.00 0.00 46 1009.1
20260505000707 67 174 0.0 1.7 0.00 0.00 0.00 46 1009.1
20260505000639 67 174 0.0 1.7 0.00 0.00 0.00 46 1009.1
20260505000307 67 175 0.0 2.6 0.00 0.00 0.00 45 1009.0
20260505000207 67 171 0.0 2.6 0.00 0.00 0.00 46 1009.0
20260505000104 67 171 0.0 2.6 0.00 0.00 0.00 45 1009.0
20260505000006 67 188 0.0 2.6 0.00 0.00 0.00 46 1009.0
20260504235902 67 188 0.0 2.6 0.00 0.00 0.00 45 1009.0
20260504235802 67 114 0.0 2.6 0.00 0.00 0.00 45 1008.9
20260504235703 67 114 0.0 3.5 0.00 0.00 0.00 45 1008.9
20260504235600 67 113 0.0 3.5 0.00 0.00 0.00 45 1008.9
20260504235533 67 76 0.0 3.5 0.00 0.00 0.00 45 1008.9
20260504235200 68 76 0.0 3.5 0.00 0.00 0.00 44 1008.9
20260504235059 68 73 0.0 3.5 0.00 0.00 0.00 45 1008.9
20260504235015 68 73 0.9 3.5 0.00 0.00 0.00 45 1008.8
20260504234759 68 73 0.9 3.5 0.00 0.00 0.00 45 1008.8
20260504234659 68 66 0.9 6.1 0.00 0.00 0.00 45 1008.8
20260504234557 68 66 0.9 6.1 0.00 0.00 0.00 44 1008.8
20260504234454 68 66 0.9 6.1 0.00 0.00 0.00 44 1008.7
20260504234355 68 240 0.9 6.1 0.00 0.00 0.00 44 1008.8
20260504234255 68 240 0.9 6.1 0.00 0.00 0.00 45 1008.8
20260504234156 68 119 0.9 6.1 0.00 0.00 0.00 44 1008.7
20260504234053 68 119 0.9 6.1 0.00 0.00 0.00 44 1008.7
20260504233953 68 119 0.9 6.1 0.00 0.00 0.00 44 1008.7
20260504233850 68 163 0.9 6.1 0.00 0.00 0.00 44 1008.6
20260504233752 68 163 0.0 6.1 0.00 0.00 0.00 45 1008.7
20260504233650 68 134 0.0 4.3 0.00 0.00 0.00 45 1008.6
20260504233549 69 134 0.9 4.3 0.00 0.00 0.00 44 1008.6
20260504233446 69 134 0.9 4.3 0.00 0.00 0.00 44 1008.6
20260504233348 69 134 0.9 4.3 0.00 0.00 0.00 44 1008.6
20260504233247 69 134 0.9 4.3 0.00 0.00 0.00 44 1008.6
20260504233146 69 134 0.9 4.3 0.00 0.00 0.00 44 1008.5
20260504233044 69 134 0.9 4.3 0.00 0.00 0.00 43 1008.6
20260504232945 69 134 0.9 4.3 0.00 0.00 0.00 44 1008.5
20260504232843 69 129 0.9 2.6 0.00 0.00 0.00 44 1008.5
20260504232744 69 129 0.9 2.6 0.00 0.00 0.00 44 1008.5
20260504232657 69 101 0.9 2.6 0.00 0.00 0.00 44 1008.4
20260504232442 69 101 0.9 2.6 0.00 0.00 0.00 43 1008.4
20260504232340 69 135 0.9 2.6 0.00 0.00 0.00 44 1008.4
20260504232243 69 182 0.9 2.6 0.00 0.00 0.00 43 1008.4
20260504232138 69 182 0.9 2.6 0.00 0.00 0.00 43 1008.4
20260504232051 69 182 0.9 2.6 0.00 0.00 0.00 43 1008.4
20260504231835 69 182 0.9 2.6 0.00 0.00 0.00 43 1008.4
20260504231735 70 182 0.9 2.6 0.00 0.00 0.00 44 1008.4
20260504231632 70 113 0.9 2.6 0.00 0.00 0.00 42 1008.4
20260504231532 70 113 0.0 2.6 0.00 0.00 0.00 42 1008.4
20260504231433 70 298 0.9 3.5 0.00 0.00 0.00 42 1008.4
20260504231330 70 298 0.9 3.5 0.00 0.00 0.00 42 1008.3
20260504231231 70 177 0.0 3.5 0.00 0.00 0.00 42 1008.3
20260504231128 70 193 0.0 3.5 0.00 0.00 0.00 42 1008.3
20260504231044 70 193 0.0 3.5 0.00 0.00 0.00 42 1008.3
20260504230827 70 197 0.9 3.5 0.00 0.00 0.00 42 1008.2
20260504230727 70 112 0.9 3.5 0.00 0.00 0.00 42 1008.3
20260504230624 71 112 0.9 3.5 0.00 0.00 0.00 42 1008.3
20260504230539 71 112 0.9 3.5 0.00 0.00 0.00 42 1008.2
20260504230324 71 193 0.9 2.6 0.00 0.00 0.00 42 1008.2
20260504230235 71 195 0.9 2.6 0.00 0.00 0.00 42 1008.2
20260504230036 71 194 0.9 2.6 0.00 0.00 0.00 41 1008.2
20260504225818 71 196 0.9 2.6 0.00 0.00 0.00 42 1008.2
20260504225720 71 213 0.9 2.6 0.00 0.00 0.00 42 1008.3
20260504225616 71 213 0.9 2.6 0.00 0.00 0.00 42 1008.2
20260504225550 71 213 0.9 2.6 0.00 0.00 0.00 41 1008.2
20260504225233 71 213 0.9 3.5 0.00 0.00 0.00 41 1008.2
20260504225017 71 214 0.9 5.2 0.00 0.00 0.00 42 1008.2
20260504224917 71 214 1.7 5.2 0.00 0.00 0.00 41 1008.2
20260504224813 71 214 1.7 5.2 0.00 0.00 0.00 41 1008.2
20260504224729 71 122 1.7 5.2 0.00 0.00 0.00 41 1008.2
20260504224532 71 200 1.7 5.2 0.00 0.00 0.00 41 1008.3
20260504224329 71 198 1.7 5.2 0.00 0.00 0.00 40 1008.2
20260504224113 71 248 1.7 5.2 0.00 0.00 0.00 40 1008.3
20260504224014 71 206 1.7 5.2 0.00 0.00 0.00 40 1008.3
20260504223914 71 202 1.7 5.2 0.00 0.00 0.00 40 1008.3
20260504223814 71 154 1.7 6.1 0.00 0.00 0.00 41 1008.3
20260504223712 71 118 1.7 6.1 0.00 0.00 0.00 40 1008.3
20260504223644 72 118 1.7 6.1 0.00 0.00 0.00 39 1008.3